Temp
13 14 14 14 15 15 15 16 16 17 17 17 18 17 18 18 18 19 20 21 21 20 20 20 19 19 20 20 21 21 21 21 21 22 22 22 22 23 23 23 23 22 22 21 22 23 23 23 23 23 23 23 22 23 22 22 22 22 22 21 21 21 21 20 20 19 19 18 18 17 17 18 18 18 17 18 18 18 18 18 18 18 18 18 18 18
13 13 14 14 15 16 16 16 16 16 16 17 17 17 17 17 18 18 19 20 20 19 19 19 19 18 19 19 20 20 20 21 21 22 22 23 23 22 22 23 24 23 21 21 22 22 23 24 24 23 23 22 22 22 22 22 22 22 22 21 22 22 20 20 20 20 19 19 19 18 18 19 18 18 17 18 18 18 18 18 18 18 18 18 17 17
13 13 14 15 15 16 16 16 15 15 15 15 16 16 16 16 17 18 18 19 18 18 18 18 17 17 18 18 19 19 19 20 21 21 22 22 22 22 22 23 23 23 22 23 23 22 22 23 24 23 23 22 23 23 23 22 22 22 22 22 22 22 21 21 21 20 20 20 20 19 19 19 18 18 18 18 18 18 17 17 17 17 17 17 17 17
13 13 15 15 15 15 15 15 15 15 15 15 15 15 15 16 17 17 17 18 18 17 17 17 16 16 18 18 19 19 19 20 21 21 21 21 22 22 22 22 22 23 23 24 23 22 22 22 22 22 22 23 23 23 22 22 22 22 22 22 22 22 21 21 21 21 21 20 20 19 19 18 17 17 17 17 17 17 17 17 17 17 17 17 17 17
13 14 15 15 15 15 14 15 15 15 15 15 15 15 15 16 16 17 17 17 18 17 16 16 16 16 17 18 19 20 20 20 20 21 21 21 21 22 22 21 21 22 22 22 23 23 23 22 22 23 23 23 22 22 23 23 23 22 22 23 22 22 22 22 21 21 21 19 19 18 18 17 17 17 17 17 17 17 17 17 18 18 18 17 17 17
13 14 15 14 14 14 14 14 15 15 14 15 15 15 15 16 16 16 16 16 17 16 17 17 16 16 18 18 19 20 20 20 20 20 21 21 21 21 21 22 22 21 21 21 22 23 22 21 21 22 23 22 21 22 24 24 24 23 23 23 23 22 22 22 22 21 20 19 18 18 17 17 17 17 17 17 17 17 17 18 19 19 18 17 17 17
13 14 14 14 14 14 14 14 14 15 14 14 16 16 16 16 16 16 15 15 15 15 17 17 16 16 18 19 19 20 20 20 20 20 20 21 21 21 21 21 22 22 22 22 22 21 21 20 20 21 21 22 21 23 25 24 24 23 23 23 23 22 22 22 22 21 20 19 19 18 18 18 17 17 17 18 18 18 18 18 18 18 18 17 17 17
13 13 13 14 14 13 13 13 14 15 14 14 16 17 16 16 15 16 15 15 15 16 16 17 17 16 16 18 19 19 19 20 19 20 20 20 20 21 21 21 22 22 23 23 22 22 21 19 19 20 22 23 23 24 24 23 22 23 23 23 23 22 22 22 22 21 20 19 19 19 18 18 18 18 18 19 19 19 18 18 18 18 18 18 18 18
13 13 13 13 13 13 13 14 15 15 14 15 17 17 16 16 16 16 16 15 15 15 15 16 16 16 16 18 19 19 19 19 19 19 19 20 20 20 21 21 21 22 22 22 22 22 22 20 20 21 22 24 24 24 23 23 23 24 23 23 22 22 22 22 21 20 20 19 19 19 18 18 18 18 18 19 19 18 18 18 18 18 18 18 18 18
13 12 13 13 13 13 14 14 15 15 15 15 16 16 16 15 15 15 15 15 14 14 15 15 16 15 16 18 18 18 18 18 19 19 19 20 20 20 20 20 21 21 21 21 21 22 22 21 22 22 22 23 23 23 23 23 24 23 23 22 22 22 22 22 22 21 20 20 19 19 18 18 18 18 18 18 18 18 18 18 18 18 18 18 18 18
12 12 13 13 13 14 14 14 14 15 15 15 15 15 15 14 14 13 13 13 14 14 15 16 16 15 16 17 18 17 18 19 19 19 19 20 20 20 20 20 20 20 21 21 21 22 22 21 22 22 22 22 23 23 23 23 23 23 23 23 23 23 23 22 22 22 21 20 20 19 19 19 18 18 18 18 18 18 18 17 18 18 18 18 18 18
12 12 13 13 13 13 14 14 14 14 15 15 14 14 14 14 13 13 12 12 13 14 16 16 16 15 15 17 18 18 19 19 19 19 19 20 20 20 20 20 20 20 21 21 21 21 21 21 22 21 21 22 22 23 23 23 23 23 23 23 23 23 23 23 23 22 21 21 20 20 19 19 19 19 18 18 18 18 18 18 18 18 17 17 17 17
12 12 13 13 13 13 14 14 13 13 14 14 13 13 13 13 14 14 13 13 14 15 16 16 16 15 15 17 18 18 18 18 19 19 19 20 20 20 20 20 20 21 21 21 21 21 21 21 21 21 21 21 22 22 22 23 23 22 22 22 22 22 23 23 23 22 21 21 20 20 20 19 19 19 19 18 18 18 18 18 18 17 17 17 17 17
11 12 12 13 13 13 13 13 13 13 13 13 13 13 13 14 14 14 14 14 14 15 16 16 15 15 16 18 18 19 19 19 19 19 19 19 20 20 20 20 20 20 20 19 20 20 20 20 20 20 20 21 21 21 21 21 21 21 20 20 20 21 22 22 22 21 21 20 20 20 20 19 19 19 19 19 19 19 19 18 18 18 18 18 18 18
11 12 12 13 13 13 13 13 14 14 13 13 13 13 13 13 14 14 14 14 14 15 15 15 14 15 17 18 19 19 19 19 19 19 19 19 19 19 19 19 19 19 19 19 18 18 18 18 17 18 18 19 19 20 20 20 20 20 20 20 20 20 21 21 21 21 20 20 20 19 19 19 19 19 19 19 18 18 18 18 18 18 18 18 18 18
10 11 13 13 13 13 14 14 14 14 13 12 12 13 12 13 15 14 14 14 14 14 14 14 15 16 18 19 19 19 18 19 19 19 19 19 18 18 18 18 18 18 18 18 18 18 18 16 15 16 17 18 19 19 20 20 20 20 20 20 20 20 20 20 20 20 20 20 20 19 19 19 19 19 19 19 19 19 19 19 18 18 18 18 18 18
10 11 12 12 13 13 13 14 14 14 14 12 11 12 12 13 14 13 13 14 14 13 13 15 15 16 18 18 19 20 19 19 19 18 18 17 17 17 16 15 15 15 15 16 16 16 16 15 14 15 16 18 19 19 19 20 20 20 20 20 20 20 21 20 20 20 20 20 20 20 20 20 19 19 19 19 19 19 19 19 19 18 18 18 18 18
10 11 12 12 13 13 12 13 14 14 14 12 11 12 12 12 12 12 13 14 13 12 14 16 15 16 16 17 18 19 19 19 18 17 17 16 16 16 15 14 15 15 15 15 15 15 15 15 13 14 16 18 19 19 19 20 20 20 20 21 21 21 21 21 21 21 20 20 20 20 20 20 19 19 19 19 19 19 19 19 19 19 19 19 19 18
10 11 12 12 12 12 12 13 14 13 12 12 12 13 12 12 12 12 12 13 13 13 14 15 15 15 16 16 18 19 19 18 17 17 17 16 16 16 15 15 15 16 15 16 16 16 17 15 14 15 18 18 19 19 19 19 20 20 20 20 20 20 21 21 21 21 21 21 21 21 21 20 20 20 19 19 19 19 19 19 19 19 19 19 19 19
10 11 11 12 12 12 12 12 12 13 12 12 12 12 12 12 12 12 12 13 14 13 13 14 14 15 16 17 18 18 18 18 16 16 16 15 15 15 15 15 16 16 16 16 16 17 17 15 15 17 18 18 18 18 18 19 19 19 20 20 20 20 20 20 21 21 21 21 21 21 21 21 20 20 20 20 19 19 19 19 19 19 19 19 19 19
10 10 10 11 11 11 12 11 12 13 12 12 12 11 11 11 12 12 12 13 13 12 13 13 13 15 17 17 17 17 16 16 16 16 15 15 15 15 15 15 15 16 16 16 16 16 16 15 14 16 17 17 17 17 18 18 18 18 19 19 20 20 20 20 20 20 20 20 20 20 20 20 21 20 20 20 20 19 20 20 20 19 19 19 19 19
10 10 9 10 11 11 12 12 11 12 12 12 12 11 12 11 11 11 11 12 12 12 13 12 12 15 16 14 14 15 14 14 15 15 15 15 15 15 15 15 15 15 15 16 15 15 16 14 13 14 15 15 16 16 17 17 17 17 18 18 19 19 19 20 20 20 20 20 20 20 20 20 20 20 20 20 20 20 20 20 20 20 19 19 19 18
8 9 9 10 10 11 12 11 9 10 11 11 11 11 11 11 11 11 11 12 12 11 12 11 11 13 15 13 13 14 13 14 15 15 15 15 15 15 15 15 15 15 15 15 15 15 14 13 12 13 14 14 15 15 16 16 16 16 17 17 18 18 19 19 19 19 19 19 19 19 19 19 19 19 19 19 19 19 19 19 20 19 19 18 18 18
8 9 9 9 10 11 11 10 9 9 10 11 11 10 11 11 11 11 10 11 11 10 11 11 10 12 14 13 13 13 13 13 14 14 14 15 15 15 15 15 15 15 15 14 14 14 13 12 12 13 13 13 14 15 15 16 16 16 16 16 17 18 18 19 19 19 19 19 19 19 18 18 18 18 18 18 19 19 19 19 19 19 18 18 18 18
9 9 9 9 10 10 11 11 10 10 10 10 10 10 10 11 11 10 10 10 10 11 11 10 10 12 14 14 13 13 13 13 14 14 14 14 14 14 14 15 15 15 15 15 14 14 14 13 13 12 12 13 13 14 14 15 15 15 15 15 16 16 17 18 18 18 18 18 18 18 18 18 18 18 18 18 18 18 18 18 18 18 17 17 18 18
9 9 9 9 9 10 10 10 10 10 10 10 10 10 10 10 10 10 9 9 9 11 12 10 10 12 13 13 13 13 13 14 14 14 14 14 14 13 13 13 14 14 14 14 14 14 14 14 14 13 12 13 13 14 14 14 15 15 15 15 15 15 16 17 17 17 17 17 17 18 18 18 18 17 17 16 16 16 17 17 17 17 17 17 17 18
8 8 8 8 8 9 9 9 9 9 9 9 9 9 9 9 9 9 9 8 9 10 10 10 11 11 12 12 13 13 13 13 13 14 14 14 14 14 13 13 13 13 13 13 13 13 13 13 14 13 13 13 13 14 14 14 15 15 15 15 15 15 15 15 15 15 16 16 16 16 16 16 16 15 15 15 16 16 16 16 16 16 17 17 17 17
8 7 7 8 8 8 9 8 8 8 8 8 8 8 8 8 8 8 8 8 9 9 8 9 11 10 10 12 12 12 13 13 13 13 13 13 13 13 13 13 12 12 12 13 13 13 13 13 14 14 13 13 14 14 14 14 14 15 15 14 14 14 13 14 14 14 14 14 14 14 14 14 14 14 14 15 15 15 15 15 15 16 16 16 16 16
8 7 7 6 7 8 8 7 7 7 7 7 7 7 8 7 7 7 7 8 9 8 7 9 10 9 10 11 11 12 12 12 12 12 12 12 12 12 12 12 12 12 12 12 12 13 13 13 13 13 13 12 13 13 13 13 13 13 12 12 11 12 12 12 13 13 13 13 12 12 12 12 13 13 13 14 14 14 14 14 14 15 15 15 15 15
7 7 7 6 7 7 7 7 6 6 6 6 7 7 7 7 7 7 7 8 8 7 8 9 9 8 9 10 11 11 12 11 11 11 11 11 11 11 11 11 11 12 12 12 12 12 13 13 13 13 12 10 10 10 10 10 10 9 9 9 9 10 10 10 11 11 12 11 11 11 11 11 11 12 12 12 13 13 13 13 13 13 14 14 14 15
7 7 6 6 6 6 6 7 6 6 6 6 6 7 7 7 7 7 7 7 7 7 8 8 7 8 9 10 10 10 11 11 11 11 11 11 11 11 11 11 11 11 11 11 11 12 12 12 12 11 9 7 6 6 6 6 6 7 7 7 7 8 8 9 9 9 9 9 9 9 9 9 10 10 10 11 11 12 12 12 12 12 12 13 13 13
7 6 6 6 5 5 6 7 6 7 6 6 6 6 6 6 6 7 7 7 7 7 7 7 7 7 9 10 10 10 10 10 10 10 10 10 9 8 8 7 7 6 5 6 6 6 6 6 5 5 4 3 3 3 3 2 3 4 5 5 6 6 7 7 7 7 6 6 6 7 7 7 8 8 8 8 9 9 10 10 11 11 11 11 11 11
6 6 6 6 5 4 5 6 6 6 5 5 6 7 7 7 7 7 7 7 8 7 7 7 7 8 9 8 7 7 6 6 7 7 7 6 5 4 3 3 2 2 1 1 1 1 1 0 0 0 0 1 1 -0 -1 -1 -1 -0 1 2 3 4 5 5 5 4 4 4 5 5 6 6 7 7 7 7 7 8 8 8 9 9 9 9 9 10
6 6 5 5 5 4 5 6 6 5 4 6 8 8 8 8 8 7 7 8 8 8 7 8 7 6 5 4 3 3 3 3 5 5 3 2 2 2 2 2 1 1 1 0 -0 -1 -1 -1 -1 -2 -1 -1 -1 -2 -3 -3 -3 -2 -1 1 1 2 2 2 2 1 0 1 2 3 4 5 6 6 6 6 6 7 7 7 7 7 6 6 7 8
5 5 5 5 5 4 5 5 4 4 5 6 7 7 8 8 9 8 8 7 6 5 6 5 4 3 3 3 3 2 2 3 4 3 2 2 2 1 1 1 1 1 0 -0 -1 -2 -2 -2 -3 -3 -3 -2 -3 -4 -4 -4 -4 -4 -2 -1 -0 -0 -0 -0 -1 -2 -2 -3 -2 -1 0 1 2 3 3 3 4 5 5 5 5 5 4 4 5 5
4 4 4 4 5 5 5 4 4 5 7 7 6 6 6 7 7 7 7 4 2 2 3 2 2 3 3 3 2 2 2 3 4 3 2 2 2 1 1 1 1 0 -0 -1 -2 -3 -3 -3 -4 -4 -3 -3 -4 -5 -5 -5 -5 -5 -3 -2 -2 -2 -2 -2 -3 -3 -4 -3 -3 -3 -3 -2 -2 -1 -1 0 1 1 2 2 3 3 3 3 4 4
4 4 4 4 5 5 4 4 5 6 6 5 5 4 4 5 5 6 6 3 0 1 2 2 2 3 2 2 2 2 2 3 4 4 3 2 2 1 1 0 0 -0 -1 -1 -2 -3 -4 -4 -4 -4 -4 -4 -5 -5 -5 -6 -6 -5 -4 -4 -4 -4 -4 -4 -4 -4 -5 -4 -4 -4 -3 -3 -3 -2 -2 -1 -1 -1 -0 0 1 1 2 2 3 3
4 4 4 4 5 4 4 4 4 4 4 3 3 3 3 4 4 5 6 4 0 0 2 2 2 2 2 2 2 1 2 3 3 4 4 3 2 1 1 0 -0 -0 -1 -2 -3 -3 -4 -5 -5 -5 -5 -5 -5 -6 -6 -6 -6 -5 -5 -5 -5 -5 -5 -5 -5 -5 -5 -5 -4 -4 -3 -3 -2 -2 -2 -2 -1 -1 -0 0 1 1 1 1 1 2
3 4 4 4 4 4 4 4 4 4 4 3 2 3 4 4 4 5 5 4 1 0 2 2 2 2 3 2 1 1 2 2 2 3 3 2 2 1 1 0 -1 -1 -2 -2 -3 -4 -5 -5 -5 -5 -5 -5 -6 -6 -6 -6 -6 -6 -5 -5 -6 -6 -6 -6 -6 -7 -6 -6 -5 -4 -3 -2 -2 -2 -2 -1 -1 -1 -0 0 1 1 1 1 1 2
4 4 4 4 4 4 4 4 4 5 5 3 2 3 4 4 5 4 4 3 1 1 2 2 2 2 2 1 1 1 1 1 1 2 2 2 1 1 1 0 -1 -2 -2 -3 -3 -4 -5 -6 -5 -5 -6 -6 -6 -6 -7 -7 -7 -6 -6 -6 -7 -7 -7 -7 -7 -8 -7 -6 -5 -4 -3 -3 -2 -2 -2 -1 -1 -1 -1 -0 0 1 1 1 1 2
4 4 3 3 3 3 4 4 4 5 4 2 2 3 4 5 5 4 3 2 1 1 2 2 2 2 1 1 1 0 1 1 1 1 1 1 1 1 1 0 -1 -2 -3 -3 -4 -5 -6 -6 -6 -6 -6 -7 -7 -7 -7 -7 -7 -7 -7 -7 -7 -7 -8 -8 -8 -8 -7 -6 -5 -4 -3 -3 -2 -2 -2 -2 -2 -1 -1 0 0 0 0 0 0 1
2 3 3 3 3 3 3 3 3 4 3 1 2 4 4 3 3 2 2 1 1 1 2 2 2 2 1 1 1 0 1 1 1 1 1 1 0 0 0 -0 -1 -2 -3 -4 -4 -5 -6 -6 -6 -6 -7 -7 -8 -8 -8 -8 -8 -8 -7 -8 -8 -8 -9 -8 -8 -8 -7 -6 -5 -5 -4 -3 -3 -2 -2 -2 -2 -2 -2 -1 -1 -1 -1 -2 -2 -1
2 2 2 2 3 3 2 2 2 3 2 1 2 3 2 2 1 1 1 1 1 1 1 1 1 1 1 1 0 1 1 0 0 0 0 0 -0 -1 -1 -1 -2 -3 -4 -4 -5 -6 -6 -7 -7 -7 -7 -8 -8 -9 -9 -9 -9 -8 -8 -9 -9 -9 -10 -10 -9 -9 -7 -6 -6 -5 -4 -3 -3 -3 -2 -2 -3 -3 -3 -3 -3 -3 -3 -3 -3 -3
2 2 2 2 2 2 1 1 2 2 2 2 1 1 2 2 2 1 0 -0 0 1 1 1 1 1 1 0 -0 -0 -0 -0 -0 -0 -1 -1 -1 -2 -2 -2 -3 -3 -4 -5 -6 -6 -7 -8 -8 -7 -8 -8 -9 -9 -10 -10 -10 -9 -10 -10 -10 -11 -11 -10 -9 -9 -8 -6 -6 -5 -5 -4 -4 -4 -3 -3 -3 -4 -4 -4 -4 -4 -4 -4 -4 -4
2 2 1 1 1 1 1 1 2 2 2 2 2 1 1 1 1 1 0 -0 -0 0 1 1 0 0 0 -0 -1 -1 -1 -1 -1 -1 -2 -2 -2 -3 -3 -3 -3 -4 -5 -5 -6 -7 -8 -8 -8 -8 -8 -9 -9 -10 -11 -11 -11 -11 -11 -11 -11 -12 -12 -11 -10 -9 -8 -7 -7 -6 -6 -5 -5 -4 -4 -4 -4 -4 -4 -4 -4 -4 -4 -4 -4 -4
1 1 1 0 0 1 0 1 1 1 1 1 1 1 1 0 0 0 -0 -0 -0 0 0 0 -0 0 -0 -1 -1 -2 -2 -2 -2 -2 -3 -3 -3 -3 -4 -4 -4 -5 -6 -6 -7 -8 -8 -9 -9 -8 -9 -9 -9 -10 -11 -12 -12 -12 -13 -13 -13 -13 -12 -11 -11 -10 -9 -8 -7 -7 -7 -6 -5 -5 -5 -5 -4 -4 -4 -4 -4 -4 -4 -4 -4 -4
0 0 -0 -1 -1 -1 -1 0 1 0 0 0 0 0 0 0 -0 -0 -1 -1 -0 -0 -0 -1 -1 -1 -1 -2 -2 -2 -2 -2 -3 -3 -3 -4 -4 -4 -5 -5 -5 -6 -6 -7 -7 -8 -9 -9 -9 -9 -9 -10 -10 -11 -12 -12 -13 -13 -14 -14 -14 -14 -13 -12 -12 -11 -10 -9 -8 -8 -8 -7 -6 -6 -6 -6 -5 -5 -5 -5 -5 -5 -5 -5 -5 -5
-1 -1 -2 -2 -1 -2 -2 -0 -0 -1 -0 -0 -1 -1 -1 -1 -1 -1 -1 -1 -1 -2 -2 -2 -2 -2 -2 -2 -2 -3 -3 -3 -3 -4 -4 -4 -5 -5 -5 -6 -6 -7 -7 -7 -8 -9 -10 -10 -10 -10 -10 -11 -11 -11 -12 -13 -13 -14 -14 -15 -15 -15 -15 -14 -14 -12 -11 -10 -9 -9 -9 -8 -8 -7 -7 -7 -6 -6 -6 -6 -5 -5 -5 -5 -5 -5
-1 -2 -2 -2 -2 -3 -2 -1 -1 -1 -1 -1 -1 -1 -1 -1 -1 -1 -1 -1 -2 -2 -2 -2 -3 -3 -3 -3 -2 -3 -3 -3 -3 -4 -5 -5 -6 -6 -6 -6 -7 -8 -8 -8 -9 -10 -10 -10 -10 -10 -11 -11 -11 -12 -13 -13 -13 -14 -15 -16 -16 -16 -16 -16 -14 -13 -12 -11 -10 -10 -10 -9 -9 -8 -8 -8 -7 -7 -7 -6 -6 -6 -5 -5 -5 -5
-3 -3 -2 -3 -4 -4 -3 -2 -1 -2 -2 -2 -1 -1 -1 -1 -1 -1 -1 -2 -2 -2 -2 -3 -3 -3 -4 -4 -3 -3 -3 -4 -4 -5 -6 -7 -7 -6 -7 -7 -8 -8 -9 -9 -10 -10 -11 -11 -11 -11 -11 -12 -12 -13 -13 -14 -14 -14 -15 -16 -17 -17 -17 -16 -15 -14 -13 -12 -11 -11 -11 -10 -10 -10 -9 -9 -9 -8 -7 -7 -6 -6 -6 -6 -6 -6
-3 -3 -3 -3 -4 -3 -2 -1 -1 -2 -3 -2 -1 -1 -1 -1 -1 -2 -3 -3 -4 -4 -4 -4 -4 -4 -4 -4 -4 -4 -5 -5 -6 -7 -8 -8 -7 -7 -7 -8 -9 -9 -10 -10 -11 -11 -12 -12 -11 -11 -12 -12 -13 -13 -14 -14 -14 -15 -16 -17 -17 -17 -17 -16 -15 -14 -14 -13 -12 -12 -12 -11 -11 -11 -11 -10 -10 -9 -9 -8 -7 -7 -6 -6 -6 -6
Height
789 793 793 788 785 786 788 786 784 785 787 788 790 792 794 797 796 791 788 782 780 788 790 788 790 787 782 779 775 772 771 771 771 768 767 766 766 765 765 763 762 762 759 755 754 754 754 755 755 756 757 758 759 760 761 762 763 763 764 765 765 765 767 769 770 770 771 771 772 773 772 771 770 771 773 773 773 774 773 774 776 776 777 778 778 779
790 793 790 784 782 783 786 786 787 789 789 790 793 794 795 796 794 789 787 784 782 789 790 787 790 790 785 781 777 774 774 772 771 769 766 764 763 763 763 762 760 760 758 756 754 753 753 753 753 755 755 756 757 757 759 759 759 760 760 761 760 761 764 764 765 766 766 766 765 766 765 764 765 767 768 768 768 769 770 771 772 772 773 774 775 776
792 791 785 781 783 784 785 785 788 791 792 794 795 797 798 796 795 792 788 786 787 792 793 791 794 792 785 782 778 775 775 771 768 768 767 764 762 761 761 761 759 759 758 756 755 753 752 752 751 752 753 753 753 753 755 755 756 757 758 758 757 758 759 759 760 761 761 760 760 761 761 762 764 765 766 766 767 768 768 768 769 769 770 770 771 772
792 788 782 782 784 785 787 787 789 791 792 795 797 799 799 795 797 798 792 789 790 793 795 796 798 792 784 780 775 772 771 769 765 764 764 763 762 760 759 760 759 758 757 755 754 752 751 751 750 751 751 751 751 751 752 753 753 754 754 754 754 754 755 755 756 757 756 757 759 761 762 764 765 765 765 766 766 766 765 765 766 765 765 766 767 768
788 783 779 782 784 787 791 790 790 794 796 794 795 798 797 795 797 796 794 792 790 793 794 797 800 792 783 783 775 768 767 766 765 762 762 761 761 760 758 757 757 756 756 755 753 751 750 749 748 748 748 747 748 748 748 749 749 749 749 749 750 751 752 752 753 753 754 757 759 761 762 764 764 764 764 764 762 761 761 761 760 759 760 762 763 764
787 781 780 784 786 788 791 792 791 794 797 796 792 792 793 794 795 794 797 798 799 800 792 795 807 793 777 780 774 766 765 763 762 762 761 759 758 759 758 756 755 753 753 753 751 750 748 747 746 746 746 746 745 744 744 744 744 744 745 746 747 748 748 749 750 751 753 755 757 758 759 760 760 760 759 758 755 755 756 756 755 756 758 759 759 760
785 781 781 785 788 789 790 792 791 790 798 799 788 785 789 792 795 795 800 805 806 804 791 791 806 795 776 774 770 766 766 761 760 760 758 758 757 757 757 755 753 751 750 749 748 747 746 746 745 744 744 744 742 741 740 740 741 742 743 743 744 744 745 746 747 748 750 752 753 753 753 753 754 754 753 752 751 752 753 753 753 754 755 756 756 757
782 783 784 786 788 791 792 792 788 787 796 796 782 781 787 790 793 794 799 805 800 797 795 792 798 798 784 771 765 766 767 761 760 760 757 757 756 754 753 751 749 748 746 745 745 745 744 743 743 741 740 740 739 738 738 738 739 739 740 740 741 741 742 743 744 745 746 747 748 749 749 749 749 749 748 748 748 749 750 750 750 750 751 752 752 753
779 783 785 786 789 792 791 788 784 786 792 789 779 781 784 785 789 791 795 800 797 798 803 797 796 801 785 766 764 766 765 763 759 759 758 756 755 753 751 749 747 745 744 743 742 741 741 740 738 737 736 735 735 736 736 736 736 736 737 737 738 739 739 740 741 742 743 744 744 745 745 746 746 746 745 746 746 746 747 747 746 746 747 747 748 749
782 785 784 785 788 789 786 783 783 785 788 784 780 782 785 787 791 794 796 798 800 802 801 794 795 800 781 761 766 770 765 762 756 755 755 752 752 751 749 748 745 744 742 741 740 737 735 734 733 733 732 732 732 733 734 733 734 734 734 735 735 735 736 737 739 739 740 741 741 742 742 742 743 743 743 743 743 743 743 743 743 743 743 744 744 745
785 784 783 784 785 784 782 783 784 783 783 783 785 788 790 794 797 801 803 803 803 798 790 784 786 794 783 761 762 767 761 756 754 754 753 749 750 748 746 745 743 742 740 738 737 734 731 730 730 731 731 730 730 730 730 730 730 731 731 731 731 732 733 734 735 736 736 737 737 738 738 738 739 739 740 740 739 739 739 739 739 739 740 740 741 741
787 786 785 784 784 783 782 783 785 783 782 784 790 793 795 799 800 803 807 808 806 792 781 778 780 791 788 764 757 758 751 749 751 752 750 748 747 745 743 742 740 739 737 735 734 732 730 729 727 728 728 727 726 726 726 726 727 727 727 728 728 728 730 730 731 732 732 733 733 734 734 734 735 735 735 735 735 735 735 735 735 736 737 737 737 738
789 787 785 783 783 783 784 786 788 788 786 788 794 798 801 803 799 801 802 801 798 788 778 777 780 787 782 763 755 753 749 750 750 747 745 744 743 741 739 738 736 735 734 733 732 731 731 729 726 725 724 724 723 722 723 722 723 723 724 725 725 725 726 727 727 728 728 729 729 730 730 730 730 731 732 731 731 731 732 732 732 733 733 733 734 734
791 787 785 786 783 781 784 788 791 792 790 792 794 796 800 801 799 800 797 794 792 784 776 776 782 786 775 757 749 745 744 746 744 741 740 740 739 737 736 735 735 734 733 733 732 730 729 728 725 723 722 722 722 721 721 721 722 723 723 723 724 723 724 725 725 725 726 726 726 727 727 727 728 728 729 728 728 728 729 729 729 729 730 730 730 730
794 790 783 782 781 778 781 784 784 787 790 792 791 793 798 796 795 795 791 791 789 781 777 780 784 783 767 750 742 738 738 739 737 736 737 738 737 736 737 737 736 735 734 733 733 732 731 729 728 726 724 724 724 723 722 722 722 722 722 722 722 723 723 724 724 724 724 724 725 725 725 726 726 726 726 726 726 726 726 726 726 726 726 726 726 726
797 791 778 775 776 774 777 778 778 783 789 793 792 794 798 791 787 790 789 787 788 786 785 783 778 768 752 742 738 737 739 738 735 735 737 739 739 739 740 739 738 737 735 734 734 733 732 730 729 728 726 725 724 724 723 722 722 721 721 721 720 721 721 722 722 722 723 723 724 724 724 725 725 725 725 724 724 724 723 723 723 723 723 723 723 723
797 790 779 777 776 775 776 775 776 779 783 792 796 794 793 788 786 792 790 784 789 793 785 776 772 763 752 746 738 735 737 737 737 739 740 743 743 742 744 743 742 740 738 738 736 735 733 731 729 728 727 726 725 725 724 723 722 721 721 720 719 720 720 720 721 721 721 722 722 722 722 722 722 722 722 721 721 721 720 721 720 720 720 720 720 720
794 789 781 777 777 777 778 776 775 777 778 788 795 789 788 791 792 796 795 786 789 792 777 767 768 766 763 756 742 736 739 739 742 742 741 744 745 744 746 745 743 741 740 739 738 736 735 733 732 730 729 729 727 727 726 725 724 723 722 721 720 719 719 719 719 719 719 720 720 720 719 719 719 719 719 718 718 718 718 718 717 717 717 716 716 717
794 790 782 778 779 778 778 779 779 779 780 784 786 784 787 793 793 797 798 790 787 788 777 767 766 765 763 757 745 741 740 741 745 745 743 744 745 745 746 744 743 741 740 739 738 737 736 735 734 733 731 730 729 728 727 726 725 724 723 722 720 719 718 718 718 718 718 718 718 718 717 717 716 716 716 716 716 716 715 715 714 714 714 713 713 713
793 793 788 781 782 782 782 784 783 780 782 784 784 786 790 791 789 791 792 785 781 786 782 773 769 763 755 747 743 742 741 743 747 747 747 748 747 746 746 745 744 743 741 741 739 738 737 736 735 733 732 731 729 728 727 726 725 723 722 721 720 719 718 717 716 716 717 717 717 716 716 715 714 714 714 714 714 714 713 713 712 712 711 711 710 710
793 797 797 786 783 785 785 786 785 781 782 785 786 789 790 790 789 789 789 782 780 784 782 777 773 760 747 743 743 745 748 749 748 748 748 749 749 748 747 746 745 744 742 741 739 738 737 736 734 733 732 730 729 728 727 725 724 723 722 721 720 719 717 715 715 715 715 715 715 715 714 713 713 713 712 712 712 711 711 710 710 709 709 708 708 707
795 798 800 792 786 785 782 783 785 783 782 784 786 787 788 788 790 792 790 783 781 782 779 778 775 758 747 750 750 749 753 752 749 749 749 748 748 747 746 745 745 743 742 740 739 738 736 735 733 731 730 729 728 727 725 724 723 722 721 720 719 718 716 715 713 713 712 712 712 712 712 712 711 711 711 710 710 709 709 708 708 707 707 706 706 705
799 798 799 795 790 785 780 783 790 790 785 785 787 786 786 788 791 795 793 784 783 785 781 783 783 765 752 756 755 752 754 753 751 751 749 747 746 745 744 743 743 742 740 739 738 736 735 734 732 730 729 728 727 726 725 723 722 721 720 719 718 717 715 714 712 711 711 710 710 709 709 709 709 709 709 709 708 708 707 706 706 705 704 704 703 703
800 800 800 796 791 786 783 785 790 792 789 787 788 788 789 789 789 791 791 787 787 788 783 786 786 769 754 754 756 755 754 753 752 751 749 747 744 744 744 742 740 739 737 736 735 734 733 732 731 730 729 728 726 725 723 722 721 720 719 718 718 716 715 713 711 710 709 708 707 707 707 707 707 707 707 707 706 706 705 704 704 703 702 701 701 700
798 800 801 799 794 789 786 786 787 788 789 790 790 791 790 788 787 790 793 793 792 785 780 785 781 764 753 753 753 753 753 751 749 748 747 747 744 744 743 741 739 738 735 734 733 732 731 730 729 729 728 727 725 723 722 721 720 719 718 717 716 715 713 712 711 709 708 707 706 705 705 704 704 705 705 705 704 703 703 702 701 700 699 699 698 697
799 802 803 803 801 794 789 791 793 793 793 793 792 792 792 790 792 793 795 799 794 779 774 780 776 761 754 753 751 751 752 751 747 745 744 744 743 742 741 741 740 738 736 735 733 732 732 731 730 728 726 725 723 721 720 720 719 718 716 714 713 713 711 709 709 708 706 705 704 703 703 703 703 703 703 702 702 701 700 700 699 698 697 696 696 695
803 807 805 804 804 799 794 795 799 799 799 797 794 794 796 796 796 797 801 803 795 784 780 778 772 765 758 753 750 750 751 751 747 745 745 743 741 740 740 740 740 740 739 737 735 734 732 731 729 727 726 724 721 720 719 718 717 716 714 711 711 711 709 707 707 706 705 704 703 702 702 702 701 701 701 700 700 699 698 697 696 695 695 694 694 693
806 809 808 806 803 800 798 798 801 804 804 802 800 798 797 798 798 800 802 797 790 793 792 777 769 771 764 754 751 750 750 751 748 747 746 745 743 742 741 740 740 739 739 738 736 734 732 730 728 726 724 723 721 719 718 716 716 714 711 709 709 709 708 706 704 704 704 704 703 702 701 701 700 699 699 698 698 697 695 694 693 693 692 692 692 691
808 809 811 811 805 799 800 802 806 809 808 806 805 802 799 799 799 799 796 789 786 793 788 772 768 772 767 759 755 749 747 749 748 748 748 746 745 744 743 742 741 739 736 735 734 733 731 728 726 724 723 722 722 720 717 714 713 712 711 709 707 707 707 705 703 702 702 703 703 703 701 700 699 698 697 696 695 694 693 692 691 690 690 690 689 689
808 808 810 811 806 803 805 807 809 811 810 806 804 801 798 795 794 792 789 784 784 787 783 776 775 774 768 764 758 750 749 750 749 749 750 749 747 744 743 742 740 738 735 733 731 729 728 726 723 722 721 721 722 720 718 716 713 712 710 708 706 705 705 705 704 702 701 701 702 702 701 699 698 696 695 694 693 692 691 689 688 687 687 687 687 686
808 810 809 809 809 809 807 807 808 807 806 804 798 793 791 789 788 789 789 786 788 789 784 782 783 776 766 762 759 755 754 753 751 749 748 747 745 744 743 741 740 739 738 735 733 729 727 726 724 723 723 723 723 721 719 717 715 712 710 708 706 705 704 704 704 702 701 700 700 700 699 698 696 694 693 693 692 690 688 686 685 684 684 684 684 684
811 812 810 810 815 815 810 807 806 804 804 802 795 787 786 788 788 786 786 785 785 784 782 783 784 775 762 758 758 757 756 755 754 750 748 748 749 750 752 752 750 750 749 747 744 740 737 735 733 731 729 728 727 725 723 721 717 714 712 709 707 706 705 704 703 702 701 700 699 699 697 696 694 692 691 690 689 687 685 683 681 681 682 682 682 681
812 812 812 815 818 819 814 807 804 808 807 794 782 777 778 782 783 782 781 780 776 778 781 780 775 767 761 764 766 767 768 767 763 760 759 759 760 761 762 762 761 759 757 754 753 751 748 745 741 737 734 731 729 729 727 725 723 719 715 713 710 708 706 704 703 702 701 700 699 697 695 693 691 688 687 685 685 683 681 680 679 679 680 680 679 678
812 812 815 816 818 820 814 805 808 816 806 784 770 769 770 771 774 776 775 772 770 773 774 771 771 773 776 780 782 781 780 777 772 770 771 768 766 766 764 764 763 760 758 756 754 752 750 747 744 740 737 734 731 729 727 725 723 720 716 713 710 708 705 704 703 702 701 699 697 695 693 690 687 685 683 682 681 680 679 678 677 678 679 678 677 675
813 814 816 815 818 819 812 813 820 809 786 774 771 771 769 765 766 769 768 771 778 781 779 779 783 787 786 785 786 785 781 777 772 772 771 769 768 768 766 764 763 761 759 757 754 752 750 747 745 740 737 735 732 729 726 724 722 719 716 712 708 704 702 700 699 698 697 695 693 691 689 687 684 682 681 680 679 677 676 676 676 676 677 676 675 673
814 816 817 815 816 815 812 819 814 782 760 769 776 773 773 770 769 770 773 784 795 793 789 791 790 788 787 785 784 783 778 773 770 769 769 767 766 768 767 765 763 761 760 758 756 753 751 748 746 742 738 736 733 730 727 725 722 720 717 714 709 703 699 698 696 695 693 691 690 688 686 684 682 680 679 678 676 676 675 676 676 676 675 673 672 670
813 815 817 815 812 811 811 809 797 776 771 781 785 783 784 783 779 776 776 789 802 797 791 793 790 786 786 783 781 781 776 769 766 764 763 764 765 766 767 765 763 761 759 758 756 754 752 749 746 743 739 736 733 731 729 726 723 721 719 717 712 705 700 698 696 695 693 691 690 688 686 684 682 680 678 677 676 676 676 675 675 675 674 672 669 667
810 810 813 813 808 807 808 804 799 793 790 791 792 790 788 784 782 779 775 784 799 798 791 790 789 786 784 782 782 781 775 770 766 760 759 762 764 764 764 763 762 760 758 757 755 752 750 748 745 742 739 736 734 732 729 727 724 722 720 718 714 708 703 700 697 696 694 692 690 688 687 685 683 681 679 678 678 677 676 675 674 673 673 671 668 665
811 809 810 811 807 805 805 802 800 794 788 791 796 791 785 781 780 779 776 780 791 795 790 788 789 786 782 782 783 781 778 776 771 762 760 763 763 762 762 760 759 758 756 755 754 751 748 746 743 740 738 736 733 731 729 726 724 722 719 716 713 709 705 701 699 696 693 691 689 688 687 685 683 681 680 679 679 678 676 675 674 672 671 670 667 664
810 810 811 811 807 804 802 797 791 783 781 791 795 789 784 780 777 781 783 782 788 792 789 787 787 784 782 784 784 783 782 781 774 767 764 764 763 761 761 759 757 757 755 753 752 751 748 745 743 739 737 735 732 730 728 725 722 720 718 715 712 709 705 702 699 696 693 690 688 686 686 684 683 682 682 680 679 678 676 674 673 671 669 668 666 663
812 811 812 811 809 807 804 799 790 779 781 792 795 788 782 777 777 784 788 788 791 791 787 785 785 783 783 784 784 783 781 778 775 770 766 764 762 760 759 759 758 757 755 753 751 749 747 744 742 740 737 734 731 729 727 725 722 720 718 716 713 710 706 703 699 696 693 690 688 686 684 683 683 683 682 681 679 677 676 674 672 670 668 666 664 661
818 815 814 812 811 809 805 802 794 784 785 793 792 784 782 786 790 792 791 792 794 790 785 784 782 781 783 782 781 780 777 775 773 771 767 765 763 760 758 758 757 756 755 753 751 749 747 744 742 740 737 734 731 729 727 726 723 721 719 717 714 711 706 702 699 697 694 690 688 686 685 684 684 683 682 681 679 677 675 673 671 669 667 665 663 660
817 816 814 810 808 807 806 806 801 791 788 792 792 788 789 795 798 796 793 793 792 788 785 783 781 781 781 779 778 777 774 773 771 769 766 764 762 760 759 757 756 755 753 752 750 749 747 744 741 739 737 734 732 729 727 726 724 722 720 718 715 711 706 703 700 697 694 691 688 687 686 685 684 683 682 681 679 677 675 673 671 669 667 665 662 660
815 816 815 809 807 809 808 802 795 788 786 791 795 796 795 794 795 795 795 793 790 787 785 782 780 780 779 777 777 775 773 772 769 767 765 763 761 760 759 756 755 754 752 752 751 749 748 745 742 739 737 735 733 730 728 727 726 724 722 718 714 710 706 703 700 697 695 692 689 688 687 685 684 683 682 680 679 677 675 673 671 669 667 665 663 660
813 813 816 815 812 809 804 796 789 788 789 792 795 795 795 794 794 794 794 791 789 786 784 782 780 777 776 775 775 773 771 769 767 765 764 762 760 759 757 755 754 753 752 751 750 749 748 745 742 739 737 735 733 731 729 727 726 725 722 718 714 710 706 703 700 698 696 693 690 688 687 685 684 683 681 680 679 677 675 673 671 669 667 665 663 661
813 812 816 815 811 807 801 795 794 794 792 793 794 794 794 794 792 792 791 789 787 785 783 781 778 775 774 774 772 771 769 767 765 764 763 761 759 757 756 754 753 752 751 750 749 748 747 745 742 739 737 735 733 731 729 728 727 725 722 718 714 710 705 702 700 699 697 695 691 688 686 685 684 682 681 679 678 676 675 673 671 669 666 664 663 661
816 816 817 816 815 814 805 796 797 797 794 795 795 793 792 792 790 790 790 787 784 782 780 779 777 774 773 772 770 769 766 764 763 762 760 759 758 756 755 754 752 751 750 749 748 748 746 744 742 739 737 735 733 731 729 728 727 725 722 717 714 710 706 702 701 699 698 695 692 688 686 684 683 682 680 678 677 675 674 672 670 668 666 664 662 660
819 821 822 817 815 814 806 799 799 799 796 796 796 793 792 791 789 788 787 785 783 781 778 776 774 772 770 769 767 766 763 762 761 760 758 758 756 755 755 753 751 751 750 748 748 747 745 744 742 740 737 735 732 731 730 728 727 725 722 718 715 712 708 704 702 700 698 695 693 689 687 685 684 682 680 677 675 674 672 671 669 667 666 664 662 660
822 824 820 816 814 812 807 803 801 797 794 793 793 792 791 789 787 784 783 782 780 778 775 773 771 770 768 766 764 763 761 759 757 757 757 756 755 754 753 752 751 751 749 748 747 746 744 743 741 739 738 735 732 731 729 727 726 725 722 720 717 714 710 706 702 699 697 695 693 690 688 686 684 682 680 677 674 672 671 670 669 667 665 663 662 660
825 823 818 819 820 815 808 803 800 798 795 792 790 789 787 785 784 781 779 779 778 776 774 772 769 767 766 764 762 761 759 757 756 757 757 755 754 753 752 751 751 750 749 748 747 745 744 742 740 739 738 735 733 731 729 728 727 725 723 720 718 715 712 707 703 700 697 695 693 691 689 686 684 682 680 678 675 672 669 668 667 667 665 663 661 660
821 818 815 818 816 808 801 800 799 799 795 790 788 787 785 783 782 780 779 778 778 776 775 772 769 766 763 761 760 759 758 756 756 756 755 754 753 752 751 751 750 749 748 748 746 744 743 741 739 738 737 735 733 732 730 728 727 725 723 720 717 715 712 708 704 700 697 696 694 692 690 688 685 683 681 678 676 674 670 667 665 665 664 663 660 658
Wind_Speed
3 3 4 6 8 8 8 11 10 2 2 7 7 5 6 6 7 6 6 4 3 5 7 6 7 9 10 10 8 7 7 7 8 9 8 7 6 6 6 7 7 7 8 12 17 19 21 25 27 28 29 29 30 32 33 34 36 37 37 37 38 40 39 37 37 37 37 37 36 35 36 40 42 41 40 40 42 42 43 43 42 42 43 43 42 42
3 5 8 11 10 5 3 7 7 3 1 3 4 6 6 7 7 5 5 3 3 3 5 4 6 8 8 8 7 6 6 6 7 8 10 10 8 6 6 7 8 6 6 9 10 13 17 21 24 25 26 27 28 31 32 33 37 39 38 39 40 40 38 39 40 39 38 40 40 38 40 42 41 39 39 41 42 42 43 42 42 43 43 42 42 42
4 7 11 9 5 2 1 3 5 6 4 2 3 4 5 5 3 1 3 3 1 1 3 4 6 8 8 9 9 8 7 7 7 7 8 9 9 7 6 6 7 7 7 7 8 10 14 18 22 23 24 27 31 33 33 35 37 38 38 40 42 41 40 41 43 41 41 43 43 42 40 38 35 35 36 39 39 38 39 41 41 42 42 42 42 42
5 6 7 3 3 4 4 2 3 4 4 4 3 3 5 4 3 3 4 3 1 2 3 3 6 8 8 10 11 10 8 7 8 8 7 7 7 9 8 6 6 7 8 8 8 9 11 14 16 19 23 28 30 31 31 34 35 36 38 41 42 41 41 42 43 43 45 43 40 39 36 32 29 30 31 32 35 37 38 39 40 42 43 43 43 42
5 2 2 5 5 6 4 2 5 4 4 5 5 6 6 4 5 6 2 2 1 2 3 1 6 8 8 10 11 9 7 7 7 8 8 7 7 8 8 7 7 7 8 8 9 9 9 11 15 18 23 27 29 31 33 35 37 38 40 42 42 42 41 42 43 44 44 39 35 33 30 27 26 27 27 27 33 37 38 39 41 44 44 43 43 43
7 3 2 4 4 6 5 5 5 5 4 6 6 8 8 5 6 6 1 3 2 3 3 4 3 9 6 9 12 9 8 9 7 8 10 10 8 8 8 9 9 8 8 8 9 10 9 12 17 19 21 24 27 32 36 39 41 41 41 41 42 42 42 42 42 42 41 37 34 32 29 28 27 26 27 31 36 37 37 41 43 43 42 41 42 43
4 3 2 3 4 6 6 5 5 6 5 5 5 7 8 6 7 7 3 1 2 4 2 4 5 9 5 8 11 8 9 13 9 8 11 10 8 8 7 8 9 10 10 10 10 10 10 12 14 17 21 24 27 32 37 39 40 39 39 40 41 41 41 41 42 41 39 37 36 35 34 34 31 29 32 37 40 38 37 39 40 40 39 39 40 42
2 4 4 3 3 4 4 4 5 8 6 4 4 7 8 9 10 8 5 5 5 2 2 2 3 7 9 9 8 6 9 13 10 9 9 8 8 9 9 10 11 12 12 11 11 11 10 12 14 18 24 28 31 34 35 33 34 36 38 40 40 40 40 41 41 40 38 38 38 38 37 36 35 34 37 39 39 38 37 36 37 39 39 39 40 41
3 5 5 5 4 3 4 5 5 7 5 3 4 6 7 9 10 8 7 6 4 2 4 4 3 4 11 8 4 6 11 15 13 11 9 8 9 10 10 11 11 12 13 12 12 12 12 14 20 25 29 32 33 32 32 31 33 35 37 38 37 37 37 38 39 37 37 38 38 38 37 35 36 37 39 39 37 36 35 35 37 38 38 38 39 40
3 3 4 5 5 4 5 5 4 7 6 3 3 2 1 2 1 1 4 5 4 4 8 9 7 6 11 7 4 6 10 14 12 9 9 10 9 9 10 11 11 12 11 11 12 14 15 19 25 28 28 30 31 30 30 31 33 34 34 35 34 35 36 37 38 37 37 37 38 38 36 35 36 36 37 37 36 35 34 34 36 37 37 38 37 38
1 1 1 2 3 3 4 2 2 7 6 1 2 2 4 4 4 3 1 1 3 5 10 14 13 10 10 6 5 5 7 9 9 6 7 8 8 10 11 11 11 10 9 10 11 13 17 21 24 24 25 28 30 31 31 31 31 32 32 33 34 35 36 37 38 38 38 38 38 39 38 37 37 37 36 35 35 35 34 34 35 36 36 36 37 38
3 4 1 1 1 0 0 1 2 1 3 5 2 1 1 2 1 2 2 2 3 5 8 11 12 12 11 6 3 5 7 7 8 7 8 9 9 10 10 10 10 10 10 11 11 11 13 17 19 19 22 27 29 30 30 31 32 31 31 31 32 33 34 35 36 37 38 38 37 39 39 39 39 39 37 35 35 36 35 34 34 34 33 34 35 35
2 3 4 3 2 1 2 2 2 4 4 4 3 4 2 3 2 2 2 2 4 6 4 5 8 9 10 10 8 9 8 6 6 8 9 10 10 10 10 11 10 9 10 10 9 9 9 11 13 14 19 24 27 29 30 32 32 31 30 29 28 31 32 32 32 33 34 35 36 38 39 40 41 40 38 36 36 37 35 34 32 32 32 32 33 33
1 3 3 2 3 3 5 3 1 0 2 4 4 4 4 4 3 3 4 3 5 7 4 4 6 4 5 8 12 17 15 12 12 12 10 9 10 11 10 9 8 8 9 8 8 9 9 9 11 14 17 18 21 25 25 25 23 22 21 20 20 24 25 25 26 27 28 30 33 35 37 38 38 37 37 37 37 36 35 34 32 32 32 32 33 33
3 3 3 5 4 4 7 6 5 4 3 3 4 3 4 4 3 3 3 3 3 4 3 2 4 4 4 3 7 12 11 10 14 14 11 9 8 7 6 6 7 8 7 7 6 7 8 8 9 13 16 15 14 16 17 15 15 14 13 12 12 13 14 15 17 19 20 23 26 28 31 33 34 34 35 35 35 35 34 33 32 32 32 32 33 34
2 4 6 5 2 6 8 6 6 6 1 3 2 2 2 4 4 3 2 2 1 3 2 2 2 4 5 4 4 6 2 2 9 10 6 6 6 5 6 6 7 7 7 6 6 7 7 8 9 11 13 14 11 9 8 7 7 6 5 5 4 6 7 7 9 10 11 13 16 18 20 23 26 29 31 32 33 34 34 34 34 34 34 34 34 34
1 3 5 4 1 4 5 5 6 5 3 1 2 2 2 0 2 2 5 3 3 4 3 4 4 4 5 7 7 8 6 2 3 4 2 3 4 4 5 5 5 5 5 5 5 5 5 5 7 10 10 11 11 11 11 12 12 11 10 9 9 8 8 8 9 9 9 10 12 14 16 17 19 21 24 26 28 29 30 32 32 33 34 34 34 34
3 3 5 1 2 3 1 2 2 2 3 4 2 4 1 3 3 1 4 3 4 5 3 6 8 5 4 6 4 4 7 4 5 4 4 5 5 5 5 5 6 6 6 6 6 6 7 7 10 14 15 16 16 16 16 15 15 14 13 12 11 10 10 9 9 9 9 10 12 14 15 17 18 19 20 22 22 23 24 26 28 29 31 32 32 32
2 1 6 2 2 4 4 3 2 3 2 4 2 2 2 0 1 2 2 3 4 5 3 5 8 5 5 5 4 5 7 4 3 4 5 6 6 5 5 5 6 6 6 6 6 6 6 6 9 13 14 15 16 17 17 16 16 16 15 14 13 12 11 10 10 10 9 10 11 13 14 15 16 17 18 20 21 22 22 24 25 26 28 29 29 30
2 1 4 4 1 2 4 2 3 3 1 2 2 2 1 2 3 3 3 3 4 5 5 3 4 4 4 5 7 9 6 2 4 4 4 4 3 4 4 5 5 5 5 5 5 5 5 5 7 10 12 14 16 18 19 18 19 20 18 17 17 16 15 14 13 12 12 13 13 14 15 15 15 15 15 17 18 20 21 23 24 25 26 27 27 28
2 2 2 4 4 1 1 1 3 3 2 1 1 2 2 1 1 1 2 3 3 3 4 5 5 4 3 3 3 2 2 4 3 3 2 1 1 1 2 3 4 4 4 4 4 5 5 6 9 13 15 16 18 20 20 20 21 21 20 20 20 19 19 18 17 17 17 17 17 17 17 17 17 17 17 17 17 19 20 22 23 24 25 26 26 27
1 2 2 2 2 1 4 5 4 4 4 4 3 3 3 3 1 3 4 3 2 2 3 5 6 5 3 2 3 6 5 3 2 1 0 3 4 4 4 5 5 5 5 6 6 6 6 7 10 15 18 19 20 21 23 23 22 21 22 22 22 22 22 21 20 20 20 21 21 21 20 19 19 19 19 19 19 20 21 22 24 25 25 26 26 26
2 3 2 1 3 3 7 5 2 2 3 4 2 2 2 2 2 2 4 2 1 3 2 3 5 4 2 2 3 4 3 2 2 1 3 5 5 5 6 7 6 7 7 7 7 7 6 7 11 15 17 18 19 21 23 24 22 22 23 23 23 24 25 23 22 22 23 24 24 23 22 22 21 20 21 21 21 22 22 23 24 26 27 27 27 26
1 2 1 2 3 4 6 4 3 3 2 3 1 1 3 2 2 4 3 2 2 4 4 4 4 3 2 2 1 1 3 4 4 5 6 7 6 5 7 8 7 8 8 8 7 6 6 8 11 11 13 16 18 21 23 24 24 24 23 23 23 25 25 24 24 24 24 26 26 25 24 23 22 21 21 22 22 22 22 23 24 26 28 28 27 26
0 1 1 1 3 5 6 6 5 4 3 2 2 2 1 1 1 1 1 2 2 4 6 6 5 4 2 3 3 4 7 9 9 7 6 7 7 7 7 7 7 8 9 10 9 9 9 9 9 9 11 15 19 21 22 23 24 25 25 23 23 24 25 24 24 25 26 27 26 24 22 22 22 21 21 21 22 22 23 23 24 26 27 27 27 25
1 1 2 3 1 2 1 2 2 2 2 1 1 2 1 1 1 0 1 2 2 3 5 5 5 6 6 7 10 10 9 11 13 13 10 9 9 9 7 6 6 7 9 11 12 12 10 9 8 9 13 17 20 21 22 23 25 26 27 25 23 24 25 25 25 26 27 26 24 21 20 19 20 20 21 21 22 23 24 24 25 26 26 26 26 25
2 1 1 4 5 5 4 5 4 1 2 4 5 5 4 2 2 1 1 4 4 4 6 6 7 10 13 14 14 11 9 11 13 13 12 12 12 11 9 8 7 6 7 9 11 11 11 11 10 11 14 18 21 21 22 23 23 24 25 24 21 21 23 22 20 21 21 20 19 18 17 17 17 18 19 20 22 24 24 24 25 26 27 26 26 27
4 2 2 4 6 7 7 7 3 2 2 5 6 8 8 5 3 3 5 9 7 5 8 10 11 13 14 15 15 13 10 10 11 12 11 11 11 11 11 12 12 11 11 10 10 11 12 13 12 11 13 16 19 21 21 22 22 22 22 19 16 14 13 11 9 10 12 14 14 14 14 15 15 16 17 18 20 22 23 23 24 24 26 27 27 28
4 1 3 3 5 8 8 7 4 2 4 4 5 9 10 9 8 9 11 13 10 8 10 13 14 13 12 13 16 17 15 13 12 12 11 11 13 13 13 13 14 15 15 13 12 12 12 12 12 12 12 13 14 16 18 19 18 16 13 10 7 6 7 8 7 7 9 11 12 13 13 14 14 15 16 17 18 19 20 21 22 23 24 26 27 28
3 2 2 2 6 8 6 5 3 1 4 5 8 11 11 13 14 14 15 15 12 11 11 13 16 15 12 12 16 18 16 14 13 12 12 13 14 15 14 14 13 13 14 15 14 13 12 12 12 12 10 7 7 10 12 13 14 13 11 10 10 9 9 11 10 9 8 9 11 12 13 13 14 15 15 16 17 18 18 19 19 21 23 24 26 26
2 1 1 1 4 6 3 2 2 2 5 7 11 14 14 16 16 14 13 12 10 11 12 13 15 14 11 12 14 14 13 12 13 14 14 13 13 14 14 14 14 13 13 13 14 14 14 13 12 12 9 7 7 8 10 13 14 13 12 12 13 13 12 12 12 11 10 9 9 10 11 13 14 14 15 15 16 17 18 19 19 21 22 24 25 26
1 1 2 4 3 4 2 1 2 4 5 10 16 18 17 15 12 10 8 7 8 10 12 11 11 10 10 10 9 9 10 10 12 14 13 10 10 10 10 11 13 13 14 14 14 15 15 15 14 14 14 15 14 12 12 13 13 13 14 13 12 13 13 13 12 11 10 9 9 11 13 15 17 17 17 17 18 19 19 20 21 22 24 24 25 26
2 2 2 2 2 2 2 1 2 5 8 10 10 11 12 10 10 9 7 8 10 9 7 9 9 8 8 8 8 9 10 11 11 11 9 8 9 10 10 10 10 10 11 12 12 13 14 14 15 17 19 21 21 20 20 18 14 13 13 11 10 10 10 10 9 9 9 11 13 15 17 18 20 21 21 21 22 22 22 23 24 25 26 26 26 27
3 3 3 2 1 1 1 2 5 7 8 5 2 3 4 7 7 8 10 12 11 6 4 6 5 6 8 8 8 9 10 11 11 8 6 6 7 9 9 9 9 10 10 10 10 10 10 12 16 21 24 24 24 25 27 26 24 23 18 12 9 10 10 9 9 9 11 13 15 17 18 19 20 22 22 23 23 24 25 25 25 26 26 26 27 28
3 4 3 2 1 2 1 4 5 8 6 2 5 4 3 7 8 8 9 6 3 4 5 4 6 8 7 6 6 7 9 12 10 4 4 6 7 8 9 9 9 10 10 10 11 11 11 12 16 20 23 25 27 28 29 29 31 31 25 17 14 13 13 13 14 15 17 18 18 20 20 20 20 21 22 23 23 24 25 25 25 26 26 26 27 28
5 4 2 1 2 3 1 2 6 9 8 9 7 7 6 3 1 2 4 4 7 7 5 5 5 6 6 7 6 6 10 12 6 2 2 7 8 7 8 9 9 10 9 9 9 10 12 15 16 17 20 22 24 27 27 28 30 30 25 20 16 14 14 16 18 20 21 22 22 22 21 21 20 20 22 24 24 24 25 25 26 26 26 27 28 28
6 3 2 3 3 3 4 5 8 12 14 9 3 3 4 2 1 1 2 1 4 5 5 4 6 7 7 8 7 8 10 11 6 3 2 8 10 7 6 6 8 9 8 8 10 12 14 18 18 17 18 19 21 23 24 26 28 26 23 19 16 14 14 17 18 17 18 20 21 22 22 22 21 20 22 24 25 25 26 26 27 26 25 26 28 28
6 5 4 4 4 4 5 5 6 10 8 0 0 5 5 4 4 3 2 2 2 5 5 4 6 8 8 8 8 8 8 9 9 6 3 9 12 11 8 6 7 9 9 10 13 14 14 17 17 17 17 16 17 19 20 24 26 23 20 18 17 16 14 14 14 14 16 19 21 21 21 21 21 21 22 23 23 25 27 27 28 27 26 25 26 28
3 4 4 4 4 3 4 4 5 7 4 2 1 7 8 7 6 3 3 3 1 5 6 5 7 8 7 6 6 6 6 7 8 8 8 13 14 12 11 9 8 11 12 13 14 14 16 19 17 14 14 15 16 18 20 22 22 19 17 18 19 18 15 14 15 17 19 20 20 20 20 20 19 20 22 23 24 24 26 26 26 26 26 25 25 27
3 1 3 4 5 5 6 6 5 4 2 2 2 9 9 7 4 4 5 3 4 8 8 7 8 8 5 5 5 4 4 5 7 9 12 15 15 13 12 10 9 12 15 17 17 17 19 21 18 14 13 13 15 19 21 20 18 17 17 18 19 18 17 19 22 22 22 22 21 20 19 19 19 20 21 22 24 24 23 24 24 24 24 25 24 25
2 1 3 3 5 8 9 8 7 4 2 2 4 9 9 5 2 4 5 3 6 11 11 10 9 5 2 3 4 3 4 6 8 11 13 14 15 15 14 12 11 12 15 17 20 20 18 16 14 14 14 14 15 17 19 18 17 15 16 17 16 17 21 25 26 26 24 23 22 20 19 19 19 19 20 20 22 22 21 21 22 22 23 23 23 23
2 2 2 3 4 5 6 7 8 5 1 4 9 9 6 4 3 3 3 5 8 11 13 11 7 4 3 4 5 5 7 8 9 11 13 13 13 12 13 14 13 13 14 15 18 20 18 15 14 14 15 16 16 16 16 16 15 14 15 15 16 20 25 27 27 27 25 23 21 19 18 19 19 18 18 19 20 20 19 19 19 20 21 21 22 23
2 1 2 3 3 4 5 6 7 5 2 7 12 10 5 3 2 2 4 8 9 11 11 8 5 4 5 6 6 7 9 10 10 11 11 12 11 10 13 15 12 12 13 14 15 17 17 16 16 15 15 17 17 17 17 16 14 14 14 14 18 23 26 27 27 26 24 22 20 18 17 17 18 17 17 18 20 19 17 18 19 18 19 20 21 22
2 2 2 2 1 2 4 5 4 5 4 7 9 6 4 2 2 2 5 9 9 8 7 5 6 7 6 6 7 8 9 10 11 10 10 10 10 10 12 14 13 12 13 13 12 13 14 15 16 15 15 15 15 18 18 14 14 15 14 15 19 23 24 25 26 25 23 21 19 17 16 16 17 16 15 17 18 17 15 16 17 17 17 18 19 19
3 3 2 2 2 3 6 7 7 9 10 7 5 4 5 5 5 6 8 8 6 5 4 6 9 9 7 7 8 8 8 10 10 9 8 9 10 10 11 12 13 13 14 14 13 12 12 13 15 16 16 14 14 18 18 14 13 15 16 19 21 21 22 24 25 24 23 20 18 17 17 16 16 16 15 14 15 15 14 14 14 14 15 16 17 17
4 2 2 3 3 5 7 7 7 10 10 8 7 7 8 9 9 7 7 7 7 7 7 8 10 10 8 8 8 8 9 9 9 8 8 8 9 10 10 12 13 13 13 14 13 13 13 13 13 14 15 15 14 16 17 15 13 15 18 22 23 21 21 21 22 22 22 19 19 20 19 16 15 16 15 14 13 14 13 12 12 12 13 13 14 14
3 3 3 3 4 6 5 3 5 10 12 12 12 12 11 10 8 6 7 9 9 10 9 9 9 10 9 8 8 9 10 9 8 8 7 7 8 8 8 10 11 11 12 12 12 12 13 13 12 12 14 14 14 13 14 14 13 15 20 24 23 22 22 20 18 19 19 19 20 21 19 17 16 16 15 15 14 13 13 13 12 11 11 12 12 13
1 3 2 4 6 7 9 9 11 13 14 11 9 8 8 8 10 10 9 9 9 9 10 9 9 9 9 8 8 8 10 10 9 8 7 6 6 6 7 8 9 10 11 12 11 11 11 12 13 13 13 14 13 12 13 13 13 16 22 24 23 22 23 21 17 16 16 17 17 17 17 17 17 17 17 17 16 15 14 13 13 12 11 11 12 13
2 3 4 7 7 8 10 11 12 12 12 9 8 9 9 10 12 12 11 10 10 11 12 11 10 9 8 8 8 8 10 12 9 6 6 6 6 6 7 7 8 10 11 11 10 10 10 11 12 12 13 13 13 13 14 14 13 16 22 24 22 21 21 20 18 15 14 15 15 15 16 16 17 17 17 18 19 19 17 14 13 12 12 11 11 11
2 5 7 5 6 8 8 8 10 11 11 10 11 13 14 13 14 15 14 12 12 11 10 11 11 10 9 10 10 8 10 11 8 4 4 5 5 6 7 7 9 10 10 11 10 9 9 11 11 11 11 12 11 11 13 13 12 15 21 22 21 19 19 19 17 15 14 14 14 15 16 16 15 16 16 17 18 20 20 19 16 12 11 11 10 9
5 7 6 4 7 10 10 10 10 10 11 12 13 15 15 14 14 14 13 11 10 10 10 11 13 13 12 13 11 8 7 7 6 5 5 5 6 7 6 7 8 8 9 10 10 10 10 11 11 10 10 11 11 10 11 11 11 14 20 22 20 19 18 17 15 14 14 14 14 15 16 15 15 16 15 15 16 17 19 22 22 17 13 11 9 9
Wind_Direction
159 178 213 219 216 205 192 206 214 186 163 208 217 222 203 211 230 205 195 211 199 248 261 253 260 267 270 275 276 276 278 265 258 259 253 242 233 237 247 258 260 248 250 259 252 242 234 230 228 225 224 223 221 221 221 220 220 222 222 221 224 227 226 224 224 224 223 223 224 226 228 232 234 234 234 236 238 238 240 241 241 241 242 242 242 243
167 198 222 226 228 222 177 209 222 228 219 186 194 219 213 214 227 199 188 194 124 212 267 293 282 274 273 276 280 287 293 278 262 262 263 258 249 235 232 251 263 260 271 286 277 259 244 235 231 227 224 220 220 221 221 220 221 223 222 222 226 227 224 223 225 223 223 224 224 224 226 230 232 232 231 234 236 237 239 240 241 241 242 242 243 243
192 221 232 228 223 233 231 207 211 228 229 184 163 210 224 214 226 244 221 228 94 160 269 320 304 283 279 275 272 269 265 262 253 245 253 263 269 266 248 246 261 270 276 279 280 273 258 243 235 229 224 221 222 224 222 222 223 223 221 223 226 226 223 225 225 224 225 228 227 227 229 230 231 233 234 236 238 239 240 240 241 242 242 242 243 243
200 233 233 188 143 195 227 189 181 224 237 217 184 202 227 197 186 237 234 228 217 198 232 313 306 284 282 279 271 258 244 246 256 250 248 250 257 266 260 243 245 259 271 274 273 273 268 258 245 232 226 225 225 225 223 223 224 223 223 224 226 226 225 226 226 225 228 230 229 230 231 233 235 238 239 241 242 241 242 242 242 243 242 242 242 242
227 257 142 147 165 182 199 185 178 206 239 236 215 209 222 197 202 232 252 298 274 198 187 255 293 277 267 272 274 264 236 230 244 254 260 255 246 260 272 266 252 246 255 266 271 272 271 267 258 243 234 229 225 224 224 224 225 224 225 226 226 227 227 228 228 229 229 228 229 230 231 235 240 242 242 241 243 242 241 242 243 244 243 241 242 242
245 263 98 151 176 161 181 208 193 189 218 243 230 220 221 198 217 242 287 7 317 250 194 140 268 273 247 247 261 265 257 248 236 236 248 252 246 248 263 269 267 262 255 253 258 262 263 264 264 256 245 236 228 225 226 228 228 227 226 228 228 228 228 230 231 231 229 225 226 227 225 228 231 236 236 236 240 241 239 241 243 244 243 241 242 242
242 234 167 157 166 170 190 213 196 176 204 247 211 201 217 210 225 236 201 151 231 254 249 142 230 268 251 234 245 246 257 258 247 240 244 248 251 246 246 254 260 265 262 256 255 257 257 258 261 259 251 243 235 233 231 229 228 227 227 229 230 229 229 231 233 232 229 225 225 225 225 226 227 229 235 238 242 243 243 244 246 246 245 243 242 242
170 177 181 147 138 187 205 220 198 170 190 242 148 161 196 207 222 220 187 204 227 257 343 144 209 268 265 249 237 216 246 257 249 245 248 244 248 248 245 246 248 254 257 258 258 253 251 250 248 251 251 248 243 241 237 231 228 229 229 230 231 231 231 233 234 233 229 226 225 226 227 229 230 231 238 242 244 246 246 247 248 249 248 246 244 243
101 155 178 159 159 200 214 222 192 164 199 252 142 162 192 200 217 214 195 219 230 230 252 211 155 255 264 253 205 201 240 254 248 242 247 243 241 244 247 248 248 252 254 257 259 256 250 247 246 247 248 250 249 246 243 239 236 234 232 231 231 232 233 234 235 234 232 230 229 229 228 230 233 235 240 244 246 247 247 247 249 249 249 248 247 246
73 151 158 156 180 211 228 225 176 178 221 271 142 138 71 117 120 191 207 220 206 213 235 219 177 219 265 256 180 203 236 249 253 245 240 238 236 240 245 248 249 251 254 254 257 259 254 250 250 251 252 253 254 252 250 248 245 241 238 236 235 236 237 238 239 239 237 235 233 232 231 232 235 237 240 244 246 247 247 247 248 248 249 249 248 248
39 278 98 134 183 212 228 212 168 198 201 52 63 40 17 29 46 43 21 193 199 223 231 221 194 202 257 256 175 205 226 234 244 241 242 242 236 237 239 242 243 245 250 250 251 256 261 260 257 256 257 258 258 256 254 251 248 246 244 242 242 244 244 243 244 242 241 239 236 234 235 234 236 238 239 241 244 246 246 245 246 247 248 248 248 249
11 329 308 232 217 325 328 73 7 256 138 84 79 123 335 319 23 41 53 103 220 236 230 224 204 201 239 250 175 216 227 225 232 230 237 239 234 236 237 237 238 239 244 248 251 255 265 271 267 258 256 258 259 257 254 252 250 248 246 245 245 248 249 249 248 246 244 241 237 236 237 237 238 239 239 239 243 245 245 245 246 247 248 248 248 248
15 271 238 257 257 150 84 91 358 4 77 104 121 134 183 228 222 205 200 196 232 245 235 209 200 205 239 252 249 253 247 240 246 239 233 233 235 238 236 236 238 239 244 249 256 259 259 266 269 262 255 254 256 255 253 252 251 249 248 246 244 248 252 253 253 251 248 244 240 239 238 239 240 240 241 242 244 247 248 248 248 247 247 247 247 246
338 278 237 235 254 195 135 136 204 257 154 158 153 163 186 206 226 221 221 231 237 249 250 168 175 211 260 248 238 245 246 238 241 244 237 231 232 235 237 243 248 249 253 255 257 262 262 261 267 270 267 263 261 261 261 261 262 261 260 258 254 257 261 260 260 258 255 251 247 244 242 241 241 242 243 245 247 249 251 251 251 251 249 248 248 248
191 287 228 192 215 185 164 178 171 146 175 189 161 167 190 206 228 220 219 234 244 270 274 163 162 198 234 221 211 234 248 239 241 245 241 241 245 253 271 276 272 272 273 276 274 276 280 282 291 294 295 300 297 291 291 291 291 288 286 282 275 275 277 273 270 269 267 264 258 252 248 247 246 246 247 249 250 252 254 255 255 255 254 253 253 253
181 261 252 230 209 159 173 192 149 118 232 241 142 127 208 224 230 257 265 198 218 312 293 204 215 218 244 298 271 258 284 204 243 258 261 275 296 320 319 300 292 294 292 297 300 295 291 291 305 313 316 324 329 325 328 334 340 345 346 343 332 324 322 312 303 295 290 285 277 270 263 259 256 254 253 254 256 257 258 259 259 258 259 259 258 259
126 266 285 307 295 172 178 187 163 164 205 192 121 169 227 19 138 255 273 226 219 274 246 205 251 269 276 290 282 269 266 231 279 314 14 16 8 18 358 337 333 335 333 338 339 330 328 330 345 358 8 17 29 36 37 38 39 37 34 31 26 13 3 351 337 327 317 304 292 285 280 275 270 265 262 262 263 265 265 264 264 263 263 263 263 263
150 268 292 289 226 262 310 140 197 229 142 124 183 205 130 41 81 164 260 244 231 251 234 221 243 252 241 263 302 300 288 322 19 25 58 65 58 55 38 21 19 23 25 21 20 16 15 19 19 23 28 31 30 26 21 21 19 15 13 14 12 6 1 354 344 336 325 310 297 290 284 279 276 272 271 270 271 272 272 270 269 268 268 267 267 267
130 285 294 281 209 288 7 73 250 318 72 125 190 181 110 52 223 173 213 241 246 257 263 228 234 233 210 238 285 286 288 325 62 71 55 54 51 47 36 24 21 20 25 26 24 23 19 17 18 18 13 7 4 358 353 351 349 347 346 345 343 340 339 337 333 327 320 311 302 297 293 287 280 274 271 270 272 274 273 272 272 271 271 272 273 272
85 107 287 309 276 290 22 53 217 259 337 71 30 22 87 198 196 183 202 232 242 255 274 243 219 237 215 216 242 254 278 345 99 98 80 79 58 31 16 13 6 356 358 4 5 2 353 347 355 357 348 339 334 331 329 328 328 329 327 327 325 322 320 319 314 309 305 301 296 294 294 293 290 285 279 274 272 273 272 272 273 274 274 275 277 277
52 117 247 304 328 12 53 200 193 190 197 209 271 274 273 244 225 278 245 211 191 216 255 253 241 254 254 235 225 186 88 68 82 89 87 52 12 330 316 312 316 321 313 310 322 323 310 306 318 325 324 321 319 319 318 318 319 320 318 316 315 312 309 309 308 305 302 299 294 290 289 290 291 291 290 286 281 277 275 276 277 278 280 281 281 282
99 153 179 286 335 358 236 228 191 175 177 171 202 217 216 218 236 296 268 215 178 183 217 249 258 255 267 350 67 95 92 49 31 81 299 311 304 295 294 281 281 290 281 282 292 294 291 294 305 313 316 316 315 315 315 314 315 314 312 311 309 306 302 302 303 303 301 298 294 289 288 288 287 288 289 289 288 286 284 285 286 288 288 287 288 289
137 117 107 245 243 240 254 250 147 175 183 153 176 194 173 167 141 210 254 260 282 279 275 280 271 257 282 11 80 91 58 1 345 256 261 278 276 284 297 293 288 283 275 277 282 284 284 286 297 308 313 313 313 312 312 312 313 312 311 312 310 305 302 302 302 302 299 296 293 291 290 289 287 286 286 286 287 289 291 292 295 295 293 292 294 294
75 83 81 289 297 305 300 321 38 38 75 113 293 296 141 146 164 191 225 313 302 272 278 283 267 250 285 315 142 96 328 301 276 253 252 268 271 268 278 288 292 288 286 286 283 285 287 289 300 309 310 310 309 307 308 309 311 312 313 315 313 308 305 305 303 302 299 295 293 294 294 293 292 290 288 288 290 292 295 297 298 298 297 296 295 297
134 105 104 25 346 335 337 348 355 355 27 118 260 296 161 182 291 289 305 307 261 241 242 255 264 252 273 320 311 317 321 311 301 280 250 254 267 263 260 267 278 287 296 300 301 305 307 309 312 309 306 305 302 302 304 305 307 310 310 312 313 309 304 300 300 300 299 297 295 296 296 297 299 298 297 298 298 300 302 303 302 301 300 298 296 298
140 139 106 106 137 237 266 291 271 301 332 287 265 314 324 225 228 24 327 266 253 250 240 239 267 274 281 292 289 293 302 299 295 292 284 275 276 275 266 256 262 278 292 301 307 310 313 314 311 303 301 299 296 297 300 301 303 306 304 304 311 312 303 297 297 297 297 297 296 295 297 302 307 310 311 311 310 310 310 309 308 307 304 301 298 298
92 43 125 158 187 216 214 222 225 93 337 288 289 296 291 256 211 157 285 255 253 275 267 253 263 276 277 277 277 279 280 277 280 285 287 287 290 294 294 287 284 285 290 298 304 306 308 307 302 299 297 296 295 296 296 295 294 293 293 295 301 304 300 297 300 303 304 305 305 305 310 316 320 321 321 318 317 316 315 314 313 310 307 304 298 296
85 10 273 199 221 241 240 247 271 30 278 268 284 288 282 271 245 230 239 243 243 263 266 254 250 258 266 276 283 283 276 271 274 279 284 290 296 298 301 304 307 304 300 300 298 297 299 299 299 297 292 292 296 298 298 294 286 281 283 291 298 301 303 310 320 327 329 329 330 331 331 328 325 323 321 318 317 315 315 315 314 311 308 305 300 298
107 261 247 205 248 259 257 272 310 345 278 267 267 270 273 267 248 236 239 238 231 232 249 255 256 255 260 274 281 281 281 278 279 285 295 301 301 300 301 305 306 304 302 301 297 294 293 293 295 294 292 296 302 304 302 300 300 302 305 318 339 343 342 348 351 349 344 342 343 341 334 328 325 322 320 318 316 315 315 315 314 313 309 304 301 299
115 253 247 220 267 275 275 294 339 322 266 269 260 253 254 253 245 241 246 248 243 242 253 266 271 269 266 267 271 277 286 293 298 300 300 298 296 297 298 297 293 292 292 293 293 292 290 288 287 288 299 329 345 331 324 325 332 343 352 1 10 8 359 354 351 351 350 347 344 336 329 326 324 322 321 320 318 316 315 315 314 312 308 304 301 298
69 272 299 26 298 298 314 357 352 257 244 262 265 254 247 249 250 248 253 259 265 264 262 266 272 274 270 266 271 280 290 296 298 295 292 290 290 293 299 303 305 306 306 305 303 302 302 304 307 310 328 9 18 358 351 346 342 347 354 354 355 355 352 349 349 354 359 356 347 335 329 326 323 323 324 323 321 318 316 316 313 310 307 304 302 300
50 278 355 29 326 310 41 89 297 298 278 270 266 259 254 253 256 256 251 243 246 255 262 266 267 270 273 277 282 291 300 302 298 298 302 310 319 329 339 342 342 342 344 344 340 336 336 339 342 343 346 353 358 0 358 348 340 342 346 345 346 346 344 347 353 360 5 1 349 339 335 331 328 328 329 328 325 321 319 317 314 312 311 309 306 305
169 218 323 13 302 313 75 133 327 337 307 281 262 252 250 247 248 252 250 245 240 238 253 261 259 270 296 321 331 330 334 330 319 323 338 350 359 8 12 7 360 353 350 353 354 351 348 346 344 343 341 343 348 351 348 343 338 334 333 335 339 345 352 2 5 4 2 355 348 344 340 335 332 331 332 331 328 323 321 319 316 315 315 313 310 307
177 195 234 198 196 292 105 53 344 307 281 274 115 132 209 218 223 236 245 250 248 245 259 270 296 336 355 3 350 338 336 324 315 332 21 30 13 6 4 1 357 348 344 347 347 345 345 342 338 338 338 340 343 344 342 342 339 334 334 336 342 355 11 18 13 7 1 355 352 350 346 341 338 335 334 333 330 326 324 323 321 318 318 316 311 307
207 205 230 179 184 240 133 44 317 259 242 306 27 20 264 225 210 228 252 274 329 360 356 360 5 2 357 348 336 327 320 314 312 331 60 51 30 7 354 350 349 346 341 339 339 337 339 339 337 337 337 338 339 340 341 343 340 336 336 339 346 1 13 11 7 3 359 357 355 354 352 349 344 340 338 337 335 332 329 328 325 322 322 320 313 309
210 204 216 181 217 248 187 153 240 261 314 348 358 4 345 307 232 259 288 3 32 25 23 22 355 343 338 331 331 324 316 317 311 209 97 45 38 17 352 341 339 340 335 331 331 329 330 332 330 330 332 334 337 339 340 341 340 336 332 333 342 360 10 8 6 2 358 357 356 353 352 350 345 342 343 342 340 337 334 331 328 325 324 322 316 312
195 177 186 221 216 213 224 222 241 283 316 339 359 353 345 322 285 274 257 47 24 7 15 2 333 331 332 328 327 321 318 324 315 244 77 31 18 1 346 328 321 323 319 319 320 316 322 327 325 327 331 333 340 343 339 338 339 336 330 329 339 356 6 8 6 2 358 357 356 353 351 346 343 341 342 342 340 336 333 329 326 325 325 321 316 314
193 192 186 215 214 202 239 254 260 282 295 28 107 312 312 273 259 252 212 185 29 360 349 339 326 319 318 322 326 323 326 330 317 298 353 6 350 340 332 315 309 313 311 318 322 318 322 328 327 328 332 334 340 346 342 340 339 336 330 332 339 348 359 6 3 357 355 357 358 357 352 346 342 340 339 337 334 330 328 327 325 324 324 320 314 312
165 207 201 224 236 215 235 247 249 268 269 139 334 325 322 298 296 312 253 226 36 354 329 325 318 305 307 323 327 329 337 327 307 307 335 339 331 326 322 313 313 315 313 319 326 322 324 329 328 327 333 336 338 344 347 346 342 336 334 337 340 345 353 356 352 350 351 353 355 356 354 348 343 340 336 332 329 327 325 324 324 325 325 322 317 313
48 221 214 235 245 245 260 261 250 266 260 135 12 339 323 296 308 326 284 276 5 342 324 322 310 298 307 328 323 330 334 312 300 308 319 319 314 312 312 307 310 318 319 322 327 326 327 330 329 328 335 338 337 341 347 349 346 340 337 337 339 344 345 345 347 349 349 349 353 355 354 351 345 339 334 330 328 328 327 326 325 326 325 324 321 318
346 271 225 239 252 257 263 263 264 272 226 129 16 342 324 310 317 300 285 313 340 323 317 316 304 287 285 309 302 299 293 285 290 298 302 306 306 306 310 310 308 313 315 317 323 326 327 326 324 323 328 333 337 341 346 347 346 340 335 335 336 338 340 344 349 350 349 350 353 353 351 350 344 337 334 333 332 331 331 331 328 325 325 325 324 323
298 283 254 228 244 258 253 256 274 275 174 56 3 347 350 358 324 276 298 323 317 310 309 305 290 253 243 270 270 275 284 285 289 293 297 303 304 305 314 319 314 311 313 315 320 325 326 323 321 322 327 333 340 345 345 343 341 336 334 333 331 334 341 347 349 348 349 351 351 349 348 347 344 341 338 339 340 338 336 336 333 330 331 333 331 329
225 258 267 218 227 262 253 249 267 258 145 40 6 353 9 10 315 281 311 309 303 302 299 287 267 249 255 264 267 277 286 289 292 295 298 303 308 310 314 317 314 311 313 314 317 324 326 322 320 323 328 333 338 344 347 344 336 332 332 328 328 335 342 347 347 346 349 351 350 349 348 345 345 346 344 343 345 344 339 338 338 338 340 342 339 335
238 198 242 254 235 252 241 231 254 282 320 11 3 335 306 295 276 280 298 298 300 299 287 277 281 270 255 264 280 284 287 289 291 296 299 302 307 309 309 312 312 310 311 311 312 319 323 319 317 320 325 329 334 341 347 346 333 327 325 323 328 336 342 345 347 347 348 350 349 347 346 346 348 348 344 345 348 348 345 343 341 341 344 346 346 342
230 172 179 230 219 227 247 262 288 304 317 338 342 309 290 286 286 289 290 291 292 281 272 290 295 283 266 272 282 282 284 287 289 293 294 295 299 301 303 306 306 306 310 312 312 317 321 316 313 316 321 326 330 336 343 347 338 328 323 324 330 336 340 344 346 347 346 344 343 345 346 345 347 348 346 347 347 347 349 349 344 342 343 346 349 347
263 284 269 257 289 292 273 269 288 300 310 320 317 308 303 300 300 301 299 299 294 286 288 292 289 283 277 277 278 279 282 285 287 285 283 284 290 295 300 302 300 303 308 311 313 320 322 318 315 316 319 323 328 333 338 343 339 330 326 330 334 337 342 346 346 344 341 335 337 349 353 345 342 346 346 345 344 343 345 348 346 343 343 346 349 349
300 329 295 268 298 300 285 295 315 304 305 312 311 306 304 303 304 304 299 296 294 291 290 285 279 278 279 274 270 274 280 284 284 283 282 283 285 292 299 300 300 304 308 308 313 319 321 319 317 318 320 322 327 333 335 335 334 331 333 339 342 341 344 348 345 339 334 330 335 347 351 343 338 340 340 341 343 342 340 343 345 344 346 350 352 350
327 34 330 260 253 265 277 299 307 297 294 299 298 295 297 299 299 297 291 288 289 286 283 278 273 273 274 272 268 272 280 284 281 280 285 288 289 294 296 295 299 306 306 305 310 317 319 315 314 318 322 323 328 334 334 330 327 329 336 344 347 343 342 344 341 332 327 328 332 338 340 338 337 337 337 338 340 339 336 336 337 337 343 353 355 353
327 342 285 268 271 278 285 295 300 294 290 290 290 292 294 294 294 293 290 288 288 288 286 286 281 272 265 267 269 272 279 281 280 282 286 288 293 298 297 302 307 307 305 306 310 317 318 312 311 317 322 323 327 334 333 328 325 329 336 343 345 343 341 339 334 329 328 331 333 334 335 336 335 335 337 337 337 338 337 336 336 333 332 340 353 359
281 270 264 275 287 281 282 293 299 299 298 298 300 301 299 299 300 299 300 302 301 299 301 300 295 284 270 267 268 266 272 279 288 300 288 282 293 299 301 310 310 306 310 315 316 318 317 312 310 315 320 322 326 330 330 327 322 326 336 343 343 339 337 335 331 331 335 336 336 335 335 334 335 336 337 337 337 337 336 338 344 347 341 336 343 358
216 242 248 259 268 270 280 288 290 293 294 295 302 304 303 306 309 307 310 315 312 309 309 305 300 296 289 282 274 258 261 282 306 318 302 289 296 301 305 313 313 314 321 322 318 318 319 315 313 316 322 327 327 325 325 324 319 325 338 347 347 341 339 340 336 333 335 336 335 334 332 330 331 333 334 336 339 338 336 335 338 345 355 356 350 354